TimeCST,TemperatureF,Dew PointF,Humidity,Sea Level PressureIn,VisibilityMPH,Wind Direction,Wind SpeedMPH,Gust SpeedMPH,PrecipitationIn,Events,Conditions,WindDirDegrees,DateUTC
12:15 AM,44.6,35.6,71,30.16,10.0,NE,5.8,-,N/A,,Clear,50,2012-11-04 05:15:00
12:35 AM,44.6,35.6,71,30.16,10.0,NE,5.8,-,N/A,,Clear,50,2012-11-04 05:35:00
12:55 AM,44.6,35.6,71,30.16,10.0,NE,4.6,-,N/A,,Clear,40,2012-11-04 05:55:00
1:15 AM,44.6,35.6,71,30.16,10.0,ENE,3.5,-,N/A,,Clear,60,2012-11-04 06:15:00
1:35 AM,42.8,35.6,76,30.16,10.0,NE,4.6,-,N/A,,Clear,50,2012-11-04 06:35:00
1:55 AM,42.8,35.6,76,30.16,10.0,NE,3.5,-,N/A,,Clear,40,2012-11-04 06:55:00
1:15 AM,42.8,35.6,76,30.16,10.0,NNE,4.6,-,N/A,,Clear,30,2012-11-04 07:15:00
1:35 AM,42.8,35.6,76,30.16,10.0,North,4.6,-,N/A,,Clear,10,2012-11-04 07:35:00
1:56 AM,42.8,35.6,76,30.16,10.0,North,3.5,-,N/A,,Clear,360,2012-11-04 07:56:00
2:15 AM,42.8,35.6,76,30.16,10.0,NNE,4.6,-,N/A,,Clear,20,2012-11-04 08:15:00
2:35 AM,41.0,35.6,81,30.16,10.0,Calm,Calm,-,N/A,,Clear,0,2012-11-04 08:35:00
3:15 AM,39.2,33.8,81,30.17,10.0,Calm,Calm,-,N/A,,Clear,0,2012-11-04 09:15:00
3:35 AM,37.4,32.0,81,30.18,10.0,Calm,Calm,-,N/A,,Clear,0,2012-11-04 09:35:00
3:55 AM,39.2,35.6,87,30.18,10.0,Calm,Calm,-,N/A,,Clear,0,2012-11-04 09:55:00
4:15 AM,37.4,33.8,87,30.18,10.0,Calm,Calm,-,N/A,,Clear,0,2012-11-04 10:15:00
4:35 AM,37.4,33.8,87,30.18,9.0,Calm,Calm,-,N/A,,Clear,0,2012-11-04 10:35:00
4:55 AM,37.4,32.0,81,30.19,10.0,Calm,Calm,-,N/A,,Clear,0,2012-11-04 10:55:00
5:35 AM,37.4,33.8,87,30.18,10.0,Calm,Calm,-,N/A,,Clear,0,2012-11-04 11:35:00
5:55 AM,37.4,33.8,87,30.18,8.0,Calm,Calm,-,N/A,,Clear,0,2012-11-04 11:55:00
6:15 AM,35.6,32.0,87,30.18,8.0,Calm,Calm,-,N/A,,Clear,0,2012-11-04 12:15:00
6:36 AM,35.6,32.0,87,30.18,3.0,Calm,Calm,-,N/A,,Clear,0,2012-11-04 12:36:00
6:55 AM,37.4,33.8,87,30.18,8.0,Calm,Calm,-,N/A,,Clear,0,2012-11-04 12:55:00
7:15 AM,37.4,35.6,93,30.18,5.0,NNE,3.5,-,N/A,,Clear,30,2012-11-04 13:15:00
7:55 AM,42.8,37.4,81,30.19,8.0,Calm,Calm,-,N/A,,Clear,0,2012-11-04 13:55:00
8:15 AM,42.8,37.4,81,30.19,8.0,NNE,3.5,-,N/A,,Clear,20,2012-11-04 14:15:00
8:35 AM,44.6,39.2,81,30.20,9.0,NE,4.6,-,N/A,,Clear,50,2012-11-04 14:35:00
8:56 AM,46.4,39.2,76,30.20,10.0,ENE,3.5,-,N/A,,Clear,70,2012-11-04 14:56:00
9:15 AM,50.0,39.2,66,30.20,10.0,East,5.8,-,N/A,,Clear,100,2012-11-04 15:15:00
9:35 AM,51.8,39.2,62,30.20,10.0,East,3.5,-,N/A,,Clear,100,2012-11-04 15:35:00
10:15 AM,55.4,39.2,54,30.20,10.0,ENE,5.8,-,N/A,,Clear,70,2012-11-04 16:15:00
10:35 AM,55.4,37.4,51,30.20,10.0,Calm,Calm,-,N/A,,Clear,0,2012-11-04 16:35:00
10:55 AM,55.4,37.4,51,30.20,10.0,ENE,6.9,-,N/A,,Clear,70,2012-11-04 16:55:00
11:15 AM,59.0,35.6,42,30.19,10.0,East,5.8,-,N/A,,Clear,90,2012-11-04 17:15:00
11:35 AM,59.0,37.4,45,30.18,10.0,Calm,Calm,-,N/A,,Clear,0,2012-11-04 17:35:00
11:55 AM,60.8,35.6,39,30.17,10.0,Calm,Calm,-,N/A,,Clear,0,2012-11-04 17:55:00
12:15 PM,60.8,35.6,39,30.15,10.0,East,3.5,-,N/A,,Clear,90,2012-11-04 18:15:00
12:35 PM,62.6,35.6,37,30.15,10.0,SE,4.6,-,N/A,,Clear,140,2012-11-04 18:35:00
12:55 PM,62.6,35.6,37,30.14,10.0,Calm,Calm,-,N/A,,Clear,0,2012-11-04 18:55:00
1:35 PM,64.4,37.4,37,30.13,10.0,SE,3.5,-,N/A,,Clear,140,2012-11-04 19:35:00
1:55 PM,64.4,35.6,34,30.12,10.0,Calm,Calm,-,N/A,,Clear,0,2012-11-04 19:55:00
3:15 PM,64.4,35.6,34,30.10,10.0,Calm,Calm,-,N/A,,Clear,0,2012-11-04 21:15:00
3:35 PM,66.2,35.6,32,30.09,10.0,Calm,Calm,-,N/A,,Clear,0,2012-11-04 21:35:00
3:55 PM,66.2,33.8,30,30.09,10.0,Calm,Calm,-,N/A,,Clear,0,2012-11-04 21:55:00
4:16 PM,66.2,33.8,30,30.08,10.0,Calm,Calm,-,N/A,,Clear,0,2012-11-04 22:16:00
4:35 PM,64.4,33.8,32,30.08,10.0,Calm,Calm,-,N/A,,Clear,0,2012-11-04 22:35:00
4:55 PM,62.6,35.6,37,30.08,10.0,Calm,Calm,-,N/A,,Clear,0,2012-11-04 22:55:00
5:15 PM,60.8,33.8,36,30.07,10.0,Calm,Calm,-,N/A,,Clear,0,2012-11-04 23:15:00
5:35 PM,55.4,33.8,44,30.07,10.0,Calm,Calm,-,N/A,,Clear,0,2012-11-04 23:35:00
5:55 PM,55.4,33.8,44,30.07,10.0,ESE,5.8,-,N/A,,Clear,110,2012-11-04 23:55:00
6:15 PM,57.2,33.8,41,30.08,10.0,East,4.6,-,N/A,,Clear,100,2012-11-05 00:15:00
6:55 PM,53.6,35.6,51,30.08,10.0,ESE,5.8,-,N/A,,Clear,120,2012-11-05 00:55:00
7:15 PM,53.6,37.4,54,30.08,10.0,ESE,4.6,-,N/A,,Clear,110,2012-11-05 01:15:00
7:55 PM,51.8,37.4,58,30.08,10.0,ESE,3.5,-,N/A,,Clear,110,2012-11-05 01:55:00
8:15 PM,51.8,37.4,58,30.07,10.0,ESE,4.6,-,N/A,,Clear,120,2012-11-05 02:15:00
8:35 PM,51.8,37.4,58,30.07,10.0,ESE,3.5,-,N/A,,Clear,120,2012-11-05 02:35:00
9:15 PM,46.4,37.4,71,30.08,10.0,Calm,Calm,-,N/A,,Clear,0,2012-11-05 03:15:00
9:35 PM,48.2,37.4,66,30.08,10.0,SSE,4.6,-,N/A,,Clear,150,2012-11-05 03:35:00
9:56 PM,46.4,37.4,71,30.07,10.0,Calm,Calm,-,N/A,,Clear,0,2012-11-05 03:56:00
10:15 PM,48.2,37.4,66,30.07,10.0,Calm,Calm,-,N/A,,Clear,0,2012-11-05 04:15:00
10:35 PM,48.2,37.4,66,30.07,10.0,South,4.6,-,N/A,,Clear,170,2012-11-05 04:35:00